Wind_Speed
14 14 13 13 14 14 14 14 13 13 12 12 11 11 11 11 12 13 14 15 15 16 16 16 16 16 16 16 15 15 16 16 17 18 18 19 19 19 19 19 19 20
15 15 14 14 14 14 14 13 13 13 13 13 12 12 12 12 12 12 13 13 14 15 16 17 18 18 18 18 18 18 18 18 19 20 20 20 21 21 22 22 22 22
15 16 14 14 14 15 14 13 13 14 15 14 14 13 13 13 13 13 13 13 14 15 15 16 17 17 18 18 19 20 20 21 22 22 23 23 23 24 24 24 25 25
15 16 15 14 15 15 14 13 14 15 16 16 15 14 14 14 14 14 14 15 15 15 15 16 16 17 17 18 19 20 20 21 22 23 24 26 26 26 26 26 26 27
16 17 17 16 16 16 14 13 14 15 16 17 17 17 16 15 15 15 16 16 16 16 16 16 17 17 18 18 19 19 20 20 21 22 23 24 26 27 27 27 27 28
17 19 19 18 17 17 15 14 14 16 18 19 19 19 18 17 17 17 17 17 17 18 17 17 17 17 18 18 19 19 20 20 20 21 22 22 23 25 26 26 27 27
17 19 20 19 19 18 16 15 16 17 19 20 21 21 20 20 19 19 19 19 19 19 19 18 18 18 18 18 19 19 19 20 20 20 21 22 23 24 25 26 26 27
16 19 20 20 20 19 17 17 18 20 20 21 22 23 23 22 21 22 21 22 22 21 21 20 20 20 19 19 19 20 20 20 20 20 21 22 23 24 25 27 27 28
15 17 18 18 18 18 18 19 20 22 22 22 23 24 24 24 23 24 24 24 24 24 23 23 23 22 22 21 21 21 22 22 22 23 23 24 25 26 27 28 29 29
17 17 18 19 19 19 20 21 22 23 23 23 24 25 25 26 26 25 26 26 26 26 26 26 26 25 25 24 24 24 24 24 25 25 26 26 27 28 29 29 30 30
23 21 21 21 22 22 23 23 24 25 25 25 26 26 27 27 27 28 28 28 28 28 28 28 28 28 28 27 27 26 27 27 27 28 28 29 29 30 30 31 31 32
28 26 25 25 25 25 26 26 27 27 27 27 27 27 28 29 30 30 30 30 29 29 29 30 30 30 30 30 29 29 30 30 30 31 31 31 31 31 32 32 33 34
31 29 28 28 29 29 29 29 29 29 29 29 29 28 29 30 31 32 32 32 31 31 31 31 31 31 31 32 32 32 32 33 33 33 33 33 34 34 34 35 35 36
32 31 31 32 34 34 33 33 32 31 32 32 31 30 30 31 32 33 34 34 34 33 33 33 33 33 33 33 34 34 35 35 35 35 36 36 36 36 37 37 37 37
33 33 34 36 38 39 38 37 35 34 34 34 32 31 31 32 33 34 35 35 36 35 35 35 35 34 35 35 35 36 36 36 37 37 38 39 40 40 39 39 38 38
36 36 36 37 42 47 46 41 38 37 36 35 34 33 33 33 34 36 36 37 37 37 37 37 37 37 37 36 36 36 37 37 38 39 41 42 42 42 41 40 40 40
39 40 42 43 48 52 49 42 39 37 35 34 35 35 34 35 35 37 37 37 37 38 38 39 39 39 38 38 37 37 38 39 40 41 42 43 44 44 43 42 42 42
43 43 45 47 49 51 50 43 38 35 35 35 37 37 36 36 37 36 37 37 38 39 40 40 40 39 39 39 39 39 40 41 42 42 43 43 44 45 45 45 44 44
43 44 45 45 44 45 46 43 39 36 37 38 38 39 38 37 36 36 37 38 39 41 41 41 41 40 40 41 41 41 42 42 43 43 44 44 45 46 47 47 46 46
41 41 42 43 41 38 38 40 40 39 40 41 41 41 38 36 36 37 38 40 41 42 42 42 42 41 41 42 42 43 43 44 44 45 45 46 46 47 48 48 48 48
43 41 40 41 39 36 35 37 40 41 43 45 45 42 38 37 37 38 39 41 42 42 42 42 42 42 42 43 44 44 45 45 46 47 47 47 47 48 49 49 49 49
45 44 43 42 41 39 38 38 40 44 47 48 46 42 39 38 38 39 40 41 41 42 42 43 42 42 43 44 45 45 46 47 47 48 48 48 49 49 49 50 50 51
45 45 44 43 43 41 39 39 42 46 48 48 45 42 39 38 38 39 39 40 41 42 42 42 42 43 44 45 45 46 47 48 48 49 50 50 50 50 51 51 52 52
43 43 42 42 43 41 39 39 43 45 47 47 44 40 38 38 39 38 38 39 41 41 42 42 43 44 44 44 45 46 47 48 50 51 51 52 52 52 52 52 52 52
41 41 40 40 43 43 41 41 43 44 44 42 39 37 38 39 38 38 38 39 40 40 41 42 43 44 44 44 45 46 47 49 50 51 52 52 52 53 53 53 52 52
40 38 37 40 44 46 45 43 41 40 39 38 36 36 37 37 37 37 37 38 38 39 40 42 43 44 44 44 44 45 46 48 49 51 52 52 52 53 53 53 52 52
Wind_Direction
277 280 281 281 283 289 297 302 303 303 302 299 294 288 282 277 273 269 268 269 270 271 270 270 268 267 266 266 265 265 265 267 268 269 271 271 271 271 271 271 270 268
279 280 283 285 285 290 300 307 308 307 306 303 298 292 287 282 277 272 268 266 265 264 263 262 262 261 261 262 263 263 264 265 267 268 269 270 271 271 271 272 273 273
279 280 282 284 284 289 299 309 311 310 308 305 300 296 291 287 283 278 274 270 266 262 261 260 260 260 260 261 262 262 263 265 267 270 271 272 272 272 272 272 273 273
277 277 278 279 280 284 294 308 312 311 310 307 304 300 296 291 287 284 280 275 271 268 266 265 264 263 263 263 263 263 264 264 265 266 268 271 273 274 274 273 273 273
272 270 270 273 277 280 288 303 310 312 312 310 307 303 298 293 290 286 283 280 278 276 273 271 269 267 266 266 265 265 265 265 265 265 265 267 270 272 274 275 275 275
269 266 268 271 275 276 281 294 304 310 313 312 309 305 299 294 292 289 286 285 283 282 280 278 276 273 271 269 267 266 266 266 267 269 270 271 272 273 275 276 276 276
271 267 267 270 273 274 275 284 294 304 310 312 310 307 301 295 292 290 288 287 286 285 284 283 281 277 274 270 269 268 268 269 270 271 273 275 277 278 279 280 280 280
270 264 265 268 271 272 272 278 286 293 302 307 308 307 302 296 291 289 288 288 288 287 286 285 282 278 276 273 272 271 272 273 273 274 275 277 278 280 281 283 283 283
266 262 262 264 268 272 276 280 281 285 292 298 302 303 301 296 291 288 288 288 288 288 287 286 283 280 277 275 274 274 275 276 277 278 279 279 280 280 281 282 283 284
263 261 260 262 268 273 277 278 277 279 285 290 294 297 297 295 291 288 287 287 287 288 287 286 285 283 281 279 278 278 277 278 278 279 280 280 281 282 282 282 283 283
261 258 257 260 267 271 274 275 273 274 279 283 287 291 291 291 289 287 286 286 286 286 286 285 285 285 284 282 282 281 280 280 280 280 281 281 281 282 282 283 284 284
259 256 255 255 259 264 267 267 267 269 273 277 280 282 285 286 286 285 284 283 283 284 284 284 284 284 284 284 283 283 282 282 282 282 282 282 282 282 283 284 285 285
261 259 258 255 254 257 259 259 260 264 267 271 273 275 278 281 283 283 283 282 282 282 282 282 282 283 283 283 283 283 283 283 284 284 284 284 284 285 286 287 287 287
262 261 261 257 252 252 253 252 253 257 261 265 267 269 273 277 280 282 283 282 281 281 281 281 281 281 281 282 282 283 284 285 286 286 286 286 286 287 287 288 288 287
256 257 259 259 254 250 248 246 247 251 256 261 263 265 269 274 278 281 282 282 282 282 282 282 281 281 280 281 282 284 286 287 287 287 287 287 287 287 287 287 287 287
251 253 254 254 252 250 245 238 239 245 250 256 260 261 266 271 276 278 279 280 281 282 282 281 281 280 280 281 283 285 286 286 286 286 287 287 287 288 288 287 287 287
250 251 252 252 255 259 254 239 234 240 246 252 257 259 264 269 272 274 276 278 279 280 280 280 280 280 281 284 286 286 286 285 285 285 286 287 288 289 288 288 287 287
251 251 255 256 260 268 266 250 236 239 245 250 254 257 261 266 269 273 275 276 277 278 278 279 280 281 283 285 285 284 284 284 284 285 286 287 288 288 288 288 287 286
256 255 258 262 265 271 269 253 238 239 243 246 251 255 258 263 268 271 274 275 276 277 278 279 281 283 285 285 285 284 284 284 285 286 287 288 288 288 287 286 286 285
262 261 261 264 267 272 266 248 238 239 241 243 247 251 255 262 266 269 271 273 274 276 278 281 283 285 286 286 286 286 286 286 287 287 287 287 286 286 286 285 285 285
263 263 263 263 265 268 262 248 242 243 244 243 245 249 254 261 264 267 270 272 275 277 280 282 284 286 287 287 287 288 288 288 288 287 287 286 286 286 286 287 287 287
261 262 263 263 262 262 258 252 247 246 247 247 247 248 253 258 262 265 269 273 277 279 281 283 286 287 288 288 289 289 289 289 288 287 287 287 287 288 288 288 288 287
261 261 260 259 258 257 254 251 248 247 248 249 247 248 251 255 259 264 269 274 277 280 282 285 287 288 289 289 290 290 290 289 289 289 289 289 289 289 289 288 288 287
262 262 259 255 253 251 249 248 248 248 248 248 245 247 251 254 259 265 269 273 277 280 284 287 288 289 290 290 291 292 292 291 291 290 290 290 290 289 289 288 287 287
263 263 261 256 251 245 242 244 247 247 246 244 243 246 251 255 259 264 268 273 277 282 286 288 289 291 292 293 294 293 293 292 291 291 290 290 290 289 289 288 287 286
260 261 259 254 248 243 240 240 241 241 239 240 243 248 253 257 261 265 269 275 280 285 288 289 291 292 292 293 293 292 291 291 290 290 290 290 290 289 289 288 287 286
Height
3111 3111 3112 3112 3112 3112 3112 3111 3111 3111 3111 3111 3111 3111 3111 3111 3110 3110 3110 3109 3109 3109 3109 3109 3109 3109 3109 3110 3110 3110 3110 3110 3110 3110 3110 3110 3110 3110 3111 3111 3112 3112
3110 3110 3110 3110 3110 3110 3110 3110 3109 3109 3109 3109 3109 3109 3109 3109 3109 3109 3108 3108 3108 3107 3107 3107 3107 3108 3108 3107 3108 3108 3108 3108 3108 3108 3108 3108 3108 3108 3108 3108 3109 3109
3108 3108 3109 3109 3109 3109 3108 3108 3108 3108 3107 3107 3107 3107 3107 3107 3107 3106 3106 3106 3106 3106 3106 3106 3106 3106 3106 3106 3106 3105 3105 3105 3105 3105 3105 3105 3105 3105 3106 3106 3106 3106
3106 3107 3107 3107 3107 3107 3107 3107 3106 3106 3106 3105 3105 3105 3105 3105 3104 3104 3104 3104 3103 3103 3103 3103 3103 3103 3103 3103 3103 3103 3103 3103 3103 3103 3102 3102 3102 3102 3102 3103 3103 3103
3105 3105 3105 3105 3105 3105 3105 3105 3105 3104 3104 3104 3103 3103 3102 3102 3102 3101 3101 3101 3101 3100 3100 3101 3101 3101 3101 3101 3101 3101 3101 3100 3100 3100 3100 3100 3099 3099 3099 3099 3099 3100
3103 3103 3103 3103 3103 3104 3104 3103 3103 3103 3102 3101 3101 3100 3100 3099 3099 3099 3098 3098 3098 3097 3097 3097 3098 3098 3098 3098 3098 3097 3097 3097 3097 3097 3097 3097 3097 3096 3096 3096 3096 3096
3101 3101 3101 3101 3101 3101 3102 3101 3101 3100 3100 3099 3098 3098 3097 3096 3096 3096 3095 3095 3095 3095 3094 3094 3094 3094 3094 3094 3094 3094 3094 3094 3094 3094 3094 3094 3094 3093 3093 3093 3093 3093
3099 3099 3099 3099 3099 3099 3099 3099 3098 3098 3097 3096 3096 3095 3094 3094 3093 3093 3092 3092 3092 3092 3092 3091 3091 3091 3091 3091 3091 3090 3091 3091 3091 3091 3091 3091 3091 3090 3090 3089 3089 3089
3097 3097 3097 3097 3097 3097 3097 3097 3096 3095 3094 3094 3093 3092 3092 3091 3090 3090 3089 3089 3089 3088 3088 3088 3088 3088 3088 3087 3087 3087 3087 3087 3087 3087 3087 3087 3087 3087 3086 3086 3085 3085
3094 3094 3094 3094 3094 3094 3094 3094 3093 3092 3092 3091 3090 3090 3089 3088 3088 3087 3087 3086 3086 3086 3085 3085 3085 3085 3084 3084 3084 3084 3084 3084 3083 3083 3083 3083 3083 3083 3082 3082 3082 3082
3092 3091 3091 3091 3092 3092 3092 3091 3091 3090 3089 3088 3087 3087 3086 3085 3085 3085 3084 3084 3083 3083 3083 3082 3082 3081 3081 3081 3081 3080 3080 3080 3080 3079 3079 3079 3079 3078 3078 3077 3077 3077
3088 3088 3088 3088 3089 3089 3089 3089 3088 3087 3086 3085 3084 3083 3083 3082 3082 3081 3081 3081 3080 3080 3079 3079 3078 3078 3078 3077 3077 3077 3076 3076 3076 3075 3075 3075 3075 3074 3074 3073 3073 3072
3085 3085 3085 3086 3086 3085 3085 3085 3085 3084 3083 3082 3081 3080 3079 3078 3078 3078 3078 3078 3077 3077 3076 3075 3075 3075 3074 3074 3073 3073 3073 3072 3072 3071 3071 3071 3070 3070 3069 3068 3068 3067
3080 3081 3082 3082 3081 3081 3081 3081 3081 3080 3080 3079 3078 3077 3076 3075 3074 3074 3074 3074 3074 3073 3073 3072 3071 3071 3070 3070 3069 3069 3069 3068 3068 3067 3066 3066 3065 3065 3064 3063 3062 3062
3074 3075 3076 3077 3076 3076 3075 3075 3076 3076 3075 3074 3074 3073 3072 3071 3071 3071 3071 3070 3070 3070 3069 3068 3068 3067 3066 3065 3065 3065 3065 3064 3063 3062 3061 3061 3060 3059 3059 3058 3057 3056
3068 3069 3070 3070 3068 3066 3067 3068 3070 3070 3070 3070 3070 3069 3068 3068 3067 3067 3067 3066 3066 3066 3065 3064 3063 3063 3062 3062 3062 3061 3060 3059 3058 3057 3056 3055 3054 3054 3053 3052 3051 3050
3062 3063 3063 3062 3060 3059 3062 3064 3065 3065 3066 3066 3066 3065 3065 3064 3063 3063 3063 3063 3062 3061 3060 3060 3059 3059 3059 3058 3058 3056 3055 3054 3052 3052 3051 3050 3049 3048 3047 3046 3045 3044
3057 3058 3057 3057 3057 3057 3058 3060 3061 3061 3062 3062 3062 3061 3061 3060 3059 3060 3059 3059 3058 3057 3056 3055 3055 3055 3055 3054 3053 3051 3050 3049 3047 3046 3045 3044 3043 3042 3041 3040 3039 3038
3051 3053 3053 3052 3053 3052 3052 3054 3055 3056 3056 3057 3057 3056 3056 3056 3056 3056 3055 3054 3053 3052 3051 3051 3051 3051 3051 3049 3048 3047 3045 3043 3042 3041 3039 3038 3037 3036 3034 3033 3032 3031
3046 3047 3048 3048 3047 3047 3047 3048 3049 3050 3050 3051 3051 3051 3051 3052 3052 3051 3051 3049 3048 3047 3046 3047 3047 3046 3046 3044 3043 3041 3039 3038 3036 3035 3033 3032 3031 3029 3028 3027 3026 3024
3041 3042 3042 3043 3043 3043 3043 3044 3045 3045 3045 3044 3045 3045 3047 3047 3047 3047 3046 3045 3044 3043 3043 3042 3042 3041 3040 3038 3037 3035 3033 3032 3030 3028 3027 3025 3024 3023 3021 3020 3018 3017
3035 3036 3036 3037 3038 3038 3038 3039 3040 3041 3040 3039 3041 3041 3042 3042 3043 3042 3042 3041 3040 3039 3038 3038 3037 3036 3034 3032 3030 3029 3027 3025 3023 3021 3020 3018 3017 3016 3014 3013 3011 3009
3029 3030 3031 3032 3032 3032 3033 3034 3035 3035 3035 3036 3037 3037 3037 3038 3038 3037 3037 3036 3035 3034 3034 3033 3032 3031 3028 3026 3024 3023 3021 3018 3016 3014 3013 3011 3010 3008 3007 3006 3004 3002
3023 3023 3025 3026 3026 3027 3028 3029 3029 3030 3031 3032 3033 3033 3033 3033 3033 3033 3032 3032 3031 3029 3029 3028 3026 3025 3023 3021 3018 3016 3014 3011 3009 3007 3006 3004 3002 3001 2999 2998 2996 2995
3017 3017 3019 3020 3020 3020 3021 3021 3023 3025 3027 3028 3028 3029 3029 3029 3029 3028 3028 3027 3026 3025 3024 3022 3021 3019 3017 3015 3012 3010 3008 3005 3003 3001 2999 2997 2995 2993 2992 2990 2988 2987
3011 3012 3013 3014 3013 3013 3014 3014 3017 3020 3022 3023 3024 3025 3025 3025 3025 3024 3023 3022 3021 3020 3019 3017 3015 3013 3011 3009 3007 3005 3002 3000 2997 2994 2992 2990 2988 2986 2984 2982 2980 2978